Location: Eurasberg
(48.3353°N, 11.0839°E)
Time: 18:20:34
(UTC+00:00)

Meteor 1-16 Rocket - Visible Passes

Search period start: 11 April 2026 00:00
Search period end: 21 April 2026 00:00
Orbit: 789 x 905 km, 81.2° (Epoch: 11 April)

Date Brightness Start Highest point End Pass type
(mag) Time Alt. Az. Time Alt. Az. Time Alt. Az.
11 Apr 4.6 18:43:17 10° SSE 18:48:53 46° E 18:54:29 10° NNE visible
11 Apr 6.0 20:26:41 10° SW 20:31:55 32° WNW 20:37:10 10° N visible
12 Apr 4.7 18:30:17 10° SSE 18:35:48 42° E 18:41:18 10° NNE visible
12 Apr 5.9 20:13:23 10° SW 20:18:45 35° WNW 20:24:06 10° N visible
13 Apr 5.8 20:00:06 10° SW 20:05:35 38° WNW 20:11:02 10° N visible
14 Apr 5.7 19:46:50 10° SW 19:52:24 41° WNW 19:57:57 10° N visible
15 Apr 5.5 19:33:36 10° SW 19:39:15 45° WNW 19:44:52 10° N visible
16 Apr 5.4 19:20:23 10° SSW 19:26:05 49° WNW 19:31:46 10° N visible
17 Apr 5.2 19:07:10 10° SSW 19:12:57 54° WNW 19:18:40 10° N visible
17 Apr 7.6 20:56:21 10° WNW 20:57:13 10° NW 20:58:05 10° NW visible
18 Apr 5.1 18:53:58 10° SSW 18:59:47 59° WNW 19:05:33 10° N visible
18 Apr 7.5 20:42:11 10° WNW 20:43:57 11° NW 20:45:44 10° NW visible
19 Apr 7.1 03:46:47 10° N 03:51:11 23° ENE 03:55:29 10° ESE visible
19 Apr 4.9 18:40:47 10° SSW 18:46:39 64° WNW 18:52:26 10° N visible
19 Apr 7.5 20:28:22 10° WNW 20:30:43 12° NW 20:33:04 10° NNW visible
20 Apr 7.2 03:33:46 10° NNE 03:37:58 21° ENE 03:42:04 10° ESE visible
20 Apr 7.5 20:14:41 10° W 20:17:28 13° NW 20:20:15 10° NNW visible
